Home   Weather   Freehold   Past weeks

Flag for USA Past Weather in Freehold, New Jersey, USA — Yesterday and Last 2 Weeks

Now
72 °F

Clear.


Feels Like: 74 °F
Forecast: 64 / 87 °F
Wind: 3 mph from Southwest

Location: Belmar-Farmdale

Current Time: Aug 20, 2017 at 11:01:08 pm

Latest Report: Aug 20, 2017 at 9:56 pm


Visibility: 10 mi

Pressure: 30.17 "Hg

Humidity: 73%

Dew Point: 63 °F

Location of FreeholdLocation

Past Weather in Freehold — Graph

°F

Freehold Temperature Yesterday

Maximum temperature yesterday: 87 °F (at 1:56 pm)
Minimum temperature yesterday: 72 °F (at 12:56 am)
Average temperature yesterday: 78 °F

High & Low Weather Summary for the Past Weeks

 TemperatureHumidityPressure
High87 °F (Aug 19, 1:56 pm)100% (Aug 8, 12:18 am)30.28 "Hg (Aug 8, 12:18 am)
Low58 °F (Aug 6, 4:56 am)38% (Aug 9, 10:56 am)29.78 "Hg (Aug 18, 5:08 pm)
Average73 °F80%30.01 "Hg
* Reported Aug 5 8:56 pm — Aug 20 8:56 pm, Freehold. Weather by CustomWeather, © 2017

Note: Actual official high and low records may vary slightly from our data, if they occured in-between our weather recording intervals... More about our weather records

Advertising

Freehold Weather History for the Previous 24 Hours

Scroll right to see more
 ConditionsComfort  
Time TempWeatherWind HumidityBarometerVisibility
8:56 pm
Sun, Aug 20
73 °FClear.6 mph74%30.14 "Hg10 mi
7:56 pm75 °FClear.No wind66%30.13 "Hg10 mi
6:56 pm80 °FSunny.6 mph54%30.12 "Hg10 mi
5:56 pm82 °FSunny.7 mph49%30.10 "Hg10 mi
4:56 pm83 °FSunny.10 mph44%30.09 "Hg10 mi
3:56 pm83 °FSunny.12 mph48%30.09 "Hg10 mi
2:56 pm82 °FSunny.13 mph49%30.10 "Hg10 mi
1:56 pm82 °FSunny.9 mph49%30.11 "Hg10 mi
12:56 pm80 °FSunny.10 mph52%30.10 "Hg10 mi
11:56 am79 °FSunny.9 mph56%30.10 "Hg10 mi
10:56 am77 °FSunny.10 mph60%30.09 "Hg10 mi
9:56 am75 °FSunny.12 mph62%30.08 "Hg10 mi
8:56 am73 °FSunny.10 mph69%30.07 "Hg10 mi
7:56 am69 °FSunny.12 mph79%30.06 "Hg10 mi
6:56 am65 °FSunny.8 mph87%30.04 "Hg10 mi
5:56 am65 °FClear.8 mph87%30.01 "Hg10 mi
4:56 am66 °FClear.9 mph84%29.99 "Hg10 mi
3:56 am67 °FClear.8 mph81%29.97 "Hg10 mi
2:56 am69 °FClear.10 mph76%29.96 "Hg10 mi
1:56 am71 °FClear.9 mph76%29.95 "Hg10 mi
12:56 am71 °FClear.6 mph87%29.94 "Hg10 mi
11:56 pm
Sat, Aug 19
73 °FClear.6 mph81%29.93 "Hg10 mi
Weather by CustomWeather, © 2017

See weather overviewHow to use our weather pages